Lid_Strength_Index
2 2 2 2 3 3 3 3 4 4 4 4 4 4 4 4 4 4 3 3 3 3 3 4 4 4 5 7 8 2 -2 -1 1 1 3 4 6 7 9 8 7 7 6 5 5 5 5
3 3 3 2 3 3 3 4 4 4 4 4 4 4 4 4 4 4 4 3 3 3 3 3 4 4 6 10 3 2 4 4 1 2 3 3 5 5 6 7 7 6 6 6 5 5 5
3 3 3 3 3 3 3 4 4 4 4 4 4 4 4 4 4 4 4 4 3 3 3 2 3 3 6 6 3 3 4 5 4 2 3 2 3 5 5 7 5 6 8 7 6 6 7
3 3 3 3 3 3 4 4 4 4 4 4 5 5 5 5 5 4 4 4 4 3 2 2 2 4 7 3 2 3 3 3 1 1 3 3 3 4 6 5 7 8 9 13 8 7 6
3 3 3 3 3 3 4 4 4 4 4 4 5 5 5 5 5 5 5 4 3 2 2 1 4 5 6 1 3 3 3 3 2 2 3 2 3 6 6 10 12 10 14 12 11 7 7
3 3 3 3 3 4 4 4 4 4 4 5 5 5 5 5 5 5 5 4 2 2 2 2 3 6 4 4 4 3 4 2 3 4 4 4 6 9 9 11 16 14 13 12 12 8 7
4 4 4 4 4 4 4 4 4 5 5 5 5 5 5 5 5 5 5 4 6 7 5 7 7 5 4 3 2 4 4 3 4 5 8 6 9 11 9 9 8 9 10 12 10 7 9
4 4 4 4 4 5 5 5 5 5 5 5 5 5 5 5 5 5 6 5 3 4 7 5 5 5 4 3 4 3 5 6 6 8 7 8 10 7 6 7 8 9 10 11 9 8 9
4 4 4 4 4 5 5 4 4 5 5 5 5 5 5 5 5 6 5 5 2 2 7 5 5 6 6 5 5 5 5 6 7 8 8 9 8 5 7 8 9 10 10 11 11 8 8
4 5 5 5 5 5 5 4 4 5 5 5 5 5 6 6 6 4 5 3 3 3 9 7 7 6 6 5 7 3 3 6 7 8 8 9 6 6 8 8 9 11 7 8 8 10 14
4 5 5 5 5 5 5 5 5 5 5 5 5 6 6 6 8 6 2 2 3 4 15 7 8 4 5 6 6 5 3 5 8 7 9 10 9 9 9 8 7 9 7 8 8 10 12
4 4 5 5 5 5 5 5 5 5 5 5 5 6 6 5 6 6 4 4 4 10 14 8 7 8 8 7 6 5 5 5 5 7 8 9 7 8 8 7 7 7 9 10 10 12 14
4 4 4 5 5 5 6 5 5 5 5 5 6 6 7 5 4 2 3 5 10 13 7 10 10 8 8 8 7 6 7 9 10 12 11 9 9 8 7 9 8 8 12 15 15 16 16
4 4 4 5 5 5 5 5 5 5 5 6 6 7 6 5 4 5 4 7 14 9 8 7 9 9 9 8 8 7 8 9 8 9 11 12 13 9 7 9 10 10 11 15 16 18 14
4 4 4 5 5 5 5 5 5 5 6 6 7 4 5 4 4 5 6 11 11 8 6 7 8 9 10 8 8 8 9 9 8 9 12 12 11 8 8 8 9 11 12 10 14 14 14
4 4 4 5 5 5 5 5 4 5 5 6 6 4 3 3 5 6 7 11 8 6 6 6 9 8 10 9 9 9 9 7 8 7 8 11 12 9 8 8 8 10 10 14 14 16 17
4 5 5 5 5 5 4 4 4 5 6 6 5 5 2 3 6 6 10 9 7 5 5 7 8 9 8 9 9 10 9 7 6 7 7 9 11 10 9 11 10 11 12 11 13 14 17
4 4 5 5 5 5 4 4 4 5 6 5 4 7 3 4 7 6 8 7 7 6 5 7 6 7 8 8 9 9 9 7 6 7 9 8 11 13 10 8 7 9 10 12 15 15 14
4 4 5 5 5 5 4 4 4 5 6 7 6 5 2 4 9 8 6 6 6 6 6 7 7 6 6 8 10 8 7 6 5 7 9 8 11 14 12 10 9 10 10 7 11 12 14
4 4 5 5 5 5 4 4 4 5 5 7 5 8 5 4 5 7 7 7 7 5 6 6 7 6 7 8 8 9 8 6 6 6 5 6 10 11 14 12 10 10 9 9 10 13 13
5 5 5 5 5 5 4 4 4 4 5 5 5 7 6 8 7 6 6 7 7 7 6 6 7 7 8 10 9 9 8 7 6 6 7 9 12 11 10 9 8 9 9 8 10 11 12
6 6 5 5 6 5 5 4 4 5 5 3 6 6 6 7 6 7 7 8 7 7 6 7 7 6 7 9 9 10 8 9 9 7 9 8 12 11 12 9 9 9 8 9 9 9 9
5 5 5 5 5 6 5 5 5 5 5 3 3 3 5 7 7 8 7 6 6 6 6 6 6 7 8 8 7 7 8 8 9 9 9 10 11 13 15 10 10 13 10 9 9 9 10
5 5 5 4 5 5 5 5 5 5 6 6 3 4 6 8 7 7 6 6 7 7 8 6 7 8 7 6 6 8 8 10 10 10 9 11 11 12 14 12 17 11 8 8 9 8 8
6 5 5 4 4 4 4 5 5 5 6 7 3 4 6 9 6 6 6 6 7 7 7 7 6 5 5 7 11 12 13 13 10 9 10 11 11 13 14 14 12 9 8 9 10 11 7
6 6 6 5 5 4 3 3 4 4 5 5 3 2 4 7 7 5 7 6 8 7 7 6 4 4 6 9 10 13 14 11 11 10 9 10 9 11 13 15 16 12 7 6 7 14 7
7 7 6 6 5 5 4 4 4 4 5 6 3 1 3 7 5 5 7 7 5 6 8 6 5 6 5 9 11 12 12 9 12 12 12 11 11 12 12 14 12 8 7 6 14 14 7
5 5 5 5 5 5 5 4 4 4 4 6 5 1 4 5 4 4 4 5 5 6 9 6 7 7 8 10 10 10 11 10 11 10 12 12 13 13 12 15 16 7 7 12 9 7 6
5 5 4 3 3 4 4 4 4 4 4 5 5 2 2 4 4 2 3 3 3 3 5 6 7 7 7 10 10 10 11 10 11 13 8 12 11 13 12 12 8 6 7 6 7 7 7